www.pogodaiklimat.ru

Погода и климат >> Архив погоды >> Канада >> Vancouver


АРХИВ ПОГОДЫ в Vancouver

Время (UTC), дата Ветер
(напр.,м/с)
 
Видим.   Явления Облачность Т
(С)
Тd
(С)
f
(%)
Тe
(С)
Тes
(С)
Комфортность P
(гПа)
Po
(гПа)
Тmin
(С)
Tmax
(С)
R
(мм)
R24
(мм)
S
(см)
03 14.08 СЗ 4 12 км 1/0
[]
+19.0 +17.1 89 +20 +20 по сезону 1015.3 1014.8
06 14.08 СЗ 4 9000 м мгла 5/5 1500 м
[Sc]
+18.8 +17.4 92 +20 +20 тепло 1015.1 1014.6 +12.7 +22.2 20
09 14.08 СЗ 3 9000 м 6/6 1500 м
[]
+16.9 +15.5 91 +17 +17 тепло 1015.1 1014.6
12 14.08 СЗ 1 9000 м мгла 5/5 1500 м
[Sc Ac As]
+16.4 +15.5 94 +17 +17 тепло 1014.7 1014.2 +15.3 +22.2
15 14.08 С 1 9000 м ясно +18.5 +16.7 89 +21 +23 комфорт 1015.0 1014.5
18 14.08 СЗ 5 9000 м дым 1/0
[Cs]
+21.6 +17.7 78 +26 +32 душно 1014.7 1014.2 +13.8 +21.7
21 14.08 З 4 16 км ясно +23.2 +18.0 73 +29 +38 душно 1013.4 1012.9
00 15.08 З 5 12 км мгла 4/0
[Cs]
+22.9 +17.4 71 +28 +31 душно 1011.4 1010.9 +13.8 +23.9
03 15.08 З 2 11 км 3/0
[]
+19.4 +17.1 87 +22 +22 комфорт 1009.9 1009.4
06 15.08 ЮЗ 2 9000 м дым ясно +19.0 +17.6 92 +21 +21 комфорт 1010.3 1009.8 +13.8 +23.9
09 15.08 С 2 9000 м ясно +16.5 +15.6 94 +17 +17 тепло 1010.9 1010.4
12 15.08 С 2 9000 м дым ясно +16.5 +15.3 93 +17 +17 тепло 1011.8 1011.3 +14.7 +23.9
15 15.08 С 1 12 км 1/0
[]
+19.0 +16.9 88 +22 +24 комфорт 1013.2 1012.7
18 15.08 З 4 12 км мгла 3/0
[Cs]
+22.0 +17.2 74 +26 +34 душно 1013.4 1012.9 +14.7 +22.0
21 15.08 З 2 24 км 1/0
[]
+22.8 +16.6 68 +27 +41 душно 1013.1 1012.6
00 16.08 ЮЗ 2 24 км 3/0
[Cs]
+23.5 +16.2 64 +27 +33 душно 1011.8 1011.3 +14.7 +23.6
03 16.08 СЗ 1 16 км 6/0
[]
+19.6 +16.6 83 +23 +23 комфорт 1011.2 1010.7
06 16.08 С 1 12 км 5/0
[Cs]
+17.4 +16.5 94 +19 +19 тепло 1012.3 1011.8 +14.7 +24.0
09 16.08 ЮВ 3 16 км 6/0
[]
+15.7 +14.3 91 +15 +15 по сезону 1013.9 1013.4
12 16.08 В 3 12 км 8/0
[Cs]
+13.4 +11.7 89 +12 +12 по сезону 1015.2 1014.7 +13.4 +24.0
15 16.08 ЮВ 4 19 км 3/0
[]
+15.0 +12.8 87 +14 +15 прохладно 1017.2 1016.7
18 16.08 ЮВ 3 19 км мгла 3/0
[Cs]
+19.3 +13.4 69 +21 +30 комфорт 1017.9 1017.4 +13.2 +19.4
21 16.08 ЮЗ 6 24 км 3/0
[]
+20.3 +16.1 77 +23 +28 комфорт 1017.7 1017.2
00 17.08 ЮЗ 4 24 км ясно +22.8 +16.1 66 +27 +32 душно 1017.2 1016.7 +13.2 +23.5
03 17.08 ЮЗ 2 24 км ясно +19.7 +15.5 77 +22 +22 комфорт 1017.1 1016.6
06 17.08 В 3 24 км ясно +16.6 +13.1 80 +16 +16 по сезону 1018.8 1018.3 +13.2 +23.5 22
09 17.08 В 4 24 км ясно +13.9 +12.1 89 +13 +13 прохладно 1020.0 1019.5
12 17.08 ЮВ 2 19 км ясно +13.0 +11.7 92 +12 +12 по сезону 1021.1 1020.6 +13.0 +23.5
15 17.08 ЮВ 3 16 км 1/1 200 м
[]
+14.7 +12.5 87 +14 +16 прохладно 1022.7 1022.2
18 17.08 ЮВ 2 19 км мгла 5/5 200 м
[Cu hum]
+17.7 +12.8 73 +18 +24 по сезону 1023.4 1022.9 +11.9 +18.0
21 17.08 ЮЗ 3 24 км 3/3 600 м
[]
+20.1 +14.4 70 +23 +31 комфорт 1023.0 1022.5
00 18.08 ЮЗ 4 24 км ясно +20.8 +12.7 60 +23 +27 комфорт 1022.2 1021.7 +11.9 +21.5
03 18.08 Ю 4 30 км 1/0
[]
+18.9 +13.9 73 +20 +20 тепло 1021.7 1021.2
06 18.08 В 3 30 км 1/0
[Ci fib]
+16.4 +13.3 82 +16 +16 по сезону 1022.8 1022.3 +11.9 +21.5 2
09 18.08 В 3 30 км ясно +15.2 +12.2 82 +15 +15 по сезону 1023.0 1022.5
12 18.08 В 2 30 км ясно +13.9 +11.6 86 +13 +13 по сезону 1023.3 1022.8 +21.5
15 18.08 Ю 2 24 км 8/8 300 м
[]
+16.6 +13.8 84 +17 +17 по сезону 1024.2 1023.7
18 18.08 СЗ 5 24 км 5/3 300 м
[Cu Sc Cs]
+19.4 +15.1 76 +21 +24 комфорт 1023.6 1023.1
21 18.08 З 6 40 км 10/10 1500 м
[]
+19.9 +15.3 75 +22 +22 комфорт 1022.4 1021.9
00 19.08 З 3 40 км 10/5 1500 м
[Sc Cs]
+20.2 +15.5 74 +23 +25 комфорт 1020.5 1020.0 +20.5
03 19.08 Ю 2 24 км 8/0 2000 м
[]
+19.1 +14.7 76 +21 +21 комфорт 1019.5 1019.0
06 19.08 штиль 0 24 км 9/0 1500 м
[Cs]
+17.0 +13.1 78 +17 +17 по сезону 1019.7 1019.2
09 19.08 З 1 24 км 10/10 1000 м
[]
+15.3 +14.1 93 +16 +16 по сезону 1019.4 1018.9
12 19.08 С 1 24 км 9/3 1000 м
[Sc]
+14.4 +12.7 90 +15 +15 по сезону 1019.0 1018.5 +14.1
15 19.08 СЗ 5 24 км 10/10 200 м
[]
+17.1 +15.8 92 +16 +16 по сезону 1019.6 1019.1
18 19.08 СЗ 6 19 км 9/9 1000 м
[]
+18.7 +15.1 80 +19 +20 по сезону 1019.4 1018.9 +13.3 +18.9
21 19.08 З 6 19 км 9/9 1000 м
[]
+19.6 +15.7 78 +21 +22 комфорт 1018.0 1017.5
00 20.08 СЗ 4 16 км 10/0 1000 м
[Ci fib]
+19.7 +15.8 78 +22 +25 комфорт 1016.2 1015.7 +13.3 +20.1
03 20.08 СЗ 3 12 км 10/10 1000 м
[]
+18.2 +14.8 81 +19 +19 по сезону 1015.8 1015.3
06 20.08 З 2 9000 м дым 1/0 2000 м
[Ac As]
+16.4 +15.5 94 +17 +17 по сезону 1016.5 1016.0 +13.3 +20.1 17
09 20.08 С 1 9000 м 1/0 2000 м
[]
+16.0 +14.9 93 +17 +17 тепло 1017.3 1016.8
12 20.08 СЗ 3 9000 м дым н/о +15.0 +14.8 99 +14 +14 по сезону 1017.5 1017.0 +13.3 +20.1
15 20.08 СЗ 3 6000 м 3/3 600 м
[]
+16.8 +15.7 93 +17 +18 по сезону 1018.4 1017.9
18 20.08 СЗ 7 6000 м дым 3/3 600 м
[]
+20.3 +15.8 75 +23 +25 комфорт 1018.3 1017.8 +13.3 +20.3
21 20.08 СЗ 7 6000 м 1/0
[]
+22.3 +16.7 71 +27 +30 душно 1016.8 1016.3

 

Местоположение метеостанции Vancouver (Канада): широта 49.20 долгота -123.10 высота над уровнем моря 4 м.

В архиве по умолчанию представлена погода в Vancouver за последнюю неделю. Архивные данные за месяц целиком и за предыдущие месяцы, начиная с января 2011 года, Вы можете получить, выбрав интересующий диапазон дат из раскрывающегося списка и нажав кнопку "Ввод!".


*Определитесь, кто Вы:
робот инопланетянин человек

Внимание! Время в таблицах - всемирное. Для получения местного времени необходимо прибавить поправку, которая в Vancouver равна -8 ч.

Смотрите также архив погоды в соседних городах и на ближайших метеорологических станциях:

Погода в Richmond (Канада) (3 км)
Погода в Vancouver Hillcrest (Канада) (3 км)
Погода в Vancouver Sea Island Ccg (Канада) (7 км)
Погода в Vancouver (aut) (Канада) (11 км)
Погода в West Vancouver Camp (Канада) (14 км)
Погода в Point Atkinson (Канада) (17 км)
Погода в Sand Heads (Канада) (18 км)
Погода в Cypress Bowl South (Канада) (21 км)
Погода в Cypress Bowl North (Канада) (23 км)
Погода в Howe Sound (Канада) (32 км)

Пояснения к столбцам:

Ветер - указаны скорость ветра в м/с - средняя за 10 мин, порывы в срок и между сроками (в фигурных скобках) и направление, откуда дует ветер: С - северный, СВ - северо-восточный, В - восточный, ЮВ - юго-восточный, Ю - южный, ЮЗ - юго-западный, З - западный, СЗ - северо-западный.
Видимость - горизонтальная дальность видимости в метрах или километрах. При видимости от 1 до 10 км при отсутствии осадков обычно наблюдается дымка, при ухудшении видимости до 1 км и менее - туман. В сухую погоду видимость может ухудшаться дымом, пылью или мглою.
Явления - указаны атмосферные явления, наблюдавшиеся в срок или в последний час перед сроком; фигурными скобками обозначены явления, наблюдавшиеся между сроками (за 1-3 часа до срока); квадратными скобками обозначены град или гололедные отложения с указанием их диаметра в мм.
Облачность - указаны через наклонную черту общая и нижняя облачность в баллах и высота нижней границы облаков в метрах; квадратными скобками обозначены формы облаков: Ci - перистые, Cs - перисто-слоистые, Cc - перисто-кучевые, Ac - высококучевые, As - высокослоистые, Sc - слоисто-кучевые, Ns - слоисто-дождевые, Cu - кучевые, Cb - кучево-дождевые. Подробнее классификацию облаков см. в Атласе облаков (PDF).
T - Температура воздуха - температура, измеренная на высоте 2 м над землей.
Td - Температура точки росы - температура, при понижении до которой содержащийся в воздухе водяной пар достигнет насыщения.
f - Относительная влажность воздуха - влажноcть воздуха, измеренная на высоте 2 м над землей.
Te - Эффективная температура - температура, которую ощущает одетый по сезону человек в тени. Характеристика душности погоды. При расчете учитывается влияние влажности воздуха и скорости ветра на теплоощущения человека.
Tes - Эффективная температура на солнце - температура, которую ощущает человек, с поправкой на солнечный нагрев. Характеристика знойности погоды. Зависит от высоты солнца над горизонтом, облачности и скорости ветра. Ночью, в пасмурную погоду, а также при ветре 12 м/с и более поправка равна нулю.
P - Атмосферное давление - приведенное к уровню моря атмосферное давление.
Po - Атмосферное давление - измеренное на уровне метеостанции атмосферное давление.
Tmin - Минимальная температура - минимум температуры воздуха на высоте 2 м над землей.
Tmax - Максимальная температура - максимум температуры воздуха на высоте 2 м над землей.
R - Количество осадков - Количество выпавших осадков за период времени, мм. При наведении курсора мыши на число - период времени, за который выпало указанное количество осадков.
R24 - Количество осадков - Количество выпавших осадков за 24 часа, мм.
S - Снежный покров - Высота снежного покрова, см. При наведении курсора мыши на число - состояние снежного покрова и степень покрытия местности в баллах.